Date,TemperatureHighF,TemperatureAvgF,TemperatureLowF,DewpointHighF,DewpointAvgF,DewpointLowF,HumidityHigh,HumidityAvg,HumidityLow,PressureMaxIn,PressureMinIn,WindSpeedMaxMPH,WindSpeedAvgMPH,GustSpeedMaxMPH,PrecipitationSumIn
2014-1-8,52.7,49.4,43.9,45.4,44.4,42.6,98,83,73,29.93,29.83,4,1,10,0.00
2014-1-9,54.3,48.8,42.1,50.3,45.1,38.7,99,87,68,29.77,29.47,8,2,12,0.11
2014-1-10,51.1,42.2,37.8,42.5,39.3,37.0,99,90,69,29.90,29.75,4,1,97,0.01
2014-1-11,45.0,39.4,36.7,44.2,37.6,33.9,99,93,85,30.13,29.83,3,1,97,0.02
2014-1-12,47.7,35.4,30.9,39.9,33.0,29.3,99,91,73,30.17,29.76,2,0,5,0.00
2014-1-13,53.4,43.6,34.7,45.3,40.4,30.4,99,89,69,29.77,29.57,3,1,8,0.00
2014-1-14,45.0,41.2,38.5,42.5,40.5,38.0,99,98,88,29.63,29.45,2,0,5,0.11
2014-1-15,43.3,39.3,35.2,42.8,38.4,33.5,99,97,90,29.66,29.41,4,2,12,0.14
2014-1-16,50.0,45.7,42.4,46.5,44.2,7.2,98,94,85,29.41,29.22,10,2,11,0.07
2014-1-17,51.1,45.6,43.3,44.3,41.8,39.7,98,87,71,29.35,29.24,4,2,12,0.15
2014-1-18,51.1,44.8,40.6,43.0,39.5,35.9,91,82,68,29.38,29.26,2,1,8,0.00
2014-1-19,49.1,43.4,39.4,43.1,39.4,35.9,95,86,76,29.43,29.21,2,0,7,0.01
2014-1-20,44.2,41.3,36.7,43.1,40.7,35.9,99,98,95,29.67,29.42,1,0,5,0.06
2014-1-21,43.3,39.1,36.5,42.5,38.5,35.7,99,98,96,29.77,29.67,2,0,4,0.01
2014-1-22,43.7,37.4,34.5,37.5,32.3,29.6,97,82,67,29.79,29.70,2,1,8,0.00
2014-1-23,42.4,37.7,33.1,41.7,36.0,30.4,99,93,85,29.80,29.62,2,1,9,0.19
2014-1-24,44.8,38.2,32.9,40.5,35.8,31.1,98,91,79,29.93,29.69,1,0,3,0.01
2014-1-25,42.6,38.2,32.5,39.8,32.6,29.0,95,81,69,29.96,29.53,4,1,13,0.26
2014-1-26,45.7,41.6,39.7,43.5,37.6,34.9,98,86,76,29.76,29.02,4,2,17,0.31
2014-1-27,42.6,38.9,35.1,40.8,35.2,31.6,94,87,81,29.19,29.05,4,2,12,0.05
2014-1-28,46.6,40.3,36.5,36.5,33.2,28.7,87,76,62,29.26,29.16,5,2,19,0.00
2014-1-29,41.5,36.0,32.7,30.9,28.8,26.7,82,75,64,29.43,29.25,4,2,14,0.00
2014-1-30,46.8,37.4,32.0,36.4,30.3,26.4,83,75,63,29.56,29.43,2,0,6,0.00
2014-1-31,50.0,39.0,28.9,38.7,32.4,26.4,96,78,63,29.61,29.31,4,1,15,0.00
2014-2-1,47.1,43.4,40.3,43.0,38.4,35.1,94,83,70,29.48,29.11,6,2,17,0.22
2014-2-2,49.8,41.6,36.5,37.8,35.1,31.2,87,78,62,29.87,29.48,3,2,11,0.00
2014-2-3,50.9,38.8,30.4,39.9,32.6,28.3,97,79,54,29.86,29.50,3,1,10,0.00
2014-2-4,53.8,43.0,34.3,38.7,34.6,30.2,86,73,54,29.58,29.40,4,2,13,0.00
2014-2-5,52.9,44.8,37.2,39.6,36.6,31.0,83,73,60,29.40,29.08,7,3,17,0.09
2014-2-6,51.8,45.9,41.9,40.9,38.6,35.8,93,76,63,29.44,29.03,5,3,12,0.30
2014-2-7,52.3,45.9,39.0,44.9,41.0,35.4,92,83,68,29.39,28.80,7,3,21,0.30
2014-2-8,47.7,44.1,38.8,42.4,38.7,33.3,88,81,69,29.34,28.90,5,3,15,0.22
2014-2-9,46.2,42.7,39.7,36.5,33.9,32.2,81,71,59,29.24,28.93,8,4,21,0.02
2014-2-10,45.5,40.7,36.3,38.1,35.0,31.2,92,80,64,29.28,29.13,3,0,7,0.02
2014-2-11,50.7,43.4,39.6,39.5,36.4,31.3,92,78,52,29.43,29.28,5,2,14,0.11
2014-2-12,51.1,42.7,36.9,38.8,35.2,30.2,90,76,52,29.93,29.22,6,3,22,0.15
2014-2-13,44.4,41.0,36.9,38.4,36.4,32.5,93,84,71,30.11,29.80,5,2,12,0.20
2014-2-14,51.3,40.9,34.5,45.0,36.4,31.0,94,84,68,30.23,29.73,4,2,11,0.37
2014-2-15,55.9,51.3,44.4,45.4,37.6,34.1,78,60,49,30.12,29.70,7,4,19,0.00
2014-2-16,54.3,45.0,38.5,38.3,35.4,29.7,89,70,43,30.41,30.12,4,2,11,0.01
2014-2-17,52.2,44.0,37.4,40.7,37.5,33.9,89,78,63,30.55,30.39,2,1,9,0.00
2014-2-18,46.4,42.9,38.3,40.2,36.2,33.6,91,77,68,30.55,30.40,2,1,8,0.07
2014-2-19,51.1,45.6,42.3,44.0,41.3,40.1,93,85,71,30.53,30.40,2,1,7,0.05
2014-2-20,50.0,46.7,41.9,47.3,43.4,39.4,93,88,78,30.52,30.14,4,2,16,0.18
2014-2-21,53.2,45.1,39.2,45.6,39.0,33.1,93,80,54,30.35,30.16,3,2,11,0.06
2014-2-22,49.8,42.8,37.9,40.5,36.7,33.5,90,79,64,30.64,30.33,3,2,8,0.02
2014-2-23,55.0,45.1,36.3,42.3,37.8,33.1,92,77,59,30.66,30.58,4,2,14,0.00
2014-2-24,58.5,47.1,36.1,38.1,36.2,32.4,89,68,44,30.60,30.37,3,1,11,0.00
2014-2-25,45.9,45.5,44.1,37.0,36.9,36.0,75,72,71,30.38,30.30,2,2,7,0.00
2014-2-26,54.3,45.6,32.0,41.0,37.9,36.2,89,74,55,30.30,29.92,2,1,8,0.00
2014-2-27,46.6,40.6,36.1,38.1,36.0,32.9,91,84,64,30.24,29.86,5,2,17,0.14
2014-2-28,51.6,43.5,36.7,40.8,37.0,33.5,95,79,54,29.85,29.58,3,1,8,0.13
2014-3-1,48.4,42.7,36.7,40.1,37.4,32.9,92,82,67,29.67,29.59,1,0,6,0.00
2014-3-2,54.0,43.3,34.2,38.1,33.2,29.0,92,69,43,29.75,29.40,3,2,10,0.00
2014-3-3,49.8,43.0,37.4,40.5,34.3,29.0,88,72,56,29.47,29.20,3,1,11,0.04
2014-3-4,56.3,41.8,30.2,41.2,33.8,27.1,92,75,50,29.95,29.47,2,0,8,0.01
2014-3-5,60.6,41.3,29.7,43.9,33.2,27.4,94,75,38,30.47,29.96,2,0,10,0.00
2014-3-6,60.8,44.5,31.6,38.7,32.5,28.5,90,66,38,30.53,30.45,2,0,7,0.00
2014-3-7,62.4,48.5,36.3,44.4,36.2,29.4,82,64,35,30.56,30.37,3,1,9,0.00
2014-3-8,67.1,52.2,38.8,49.5,41.6,37.6,98,71,41,30.62,30.47,2,1,7,0.00
2014-3-9,72.1,52.4,33.4,41.0,36.3,30.2,93,59,29,30.49,30.43,3,1,12,0.00
2014-3-10,72.1,52.6,34.5,46.2,39.3,31.3,98,66,29,30.53,30.38,3,1,9,0.00
2014-3-11,60.6,51.6,44.6,46.6,44.9,43.5,97,79,57,30.63,30.53,2,2,8,0.00
2014-3-12,55.6,54.3,40.1,45.2,44.6,38.2,93,70,68,30.61,29.92,2,2,7,0.00
2014-3-13,70.5,52.0,32.9,45.9,38.7,32.7,99,67,31,29.92,29.85,1,0,6,0.00
2014-3-14,66.2,51.8,32.7,43.7,37.0,32.4,99,62,37,29.92,29.76,1,1,6,0.00
2014-3-15,61.0,55.2,48.6,46.2,39.7,36.5,91,58,40,29.99,29.76,4,2,15,0.02
2014-3-16,61.2,52.0,46.2,47.3,44.1,40.4,88,75,56,29.91,29.84,3,1,11,0.00
2014-3-17,56.3,49.6,43.9,47.2,42.5,39.0,98,78,58,29.90,29.86,2,1,8,0.00
2014-3-18,52.2,49.0,45.5,47.1,43.9,39.9,94,83,67,29.86,29.66,3,1,11,0.08
2014-3-19,68.0,55.3,47.5,47.4,44.3,38.4,87,69,35,29.96,29.77,4,2,11,0.01
2014-3-20,73.6,58.2,42.8,45.7,40.0,29.6,96,57,20,29.94,29.45,5,2,14,0.00
2014-3-21,57.2,48.4,38.8,50.1,42.7,35.0,99,82,58,29.57,29.38,3,1,11,0.37
2014-3-22,53.6,44.2,38.3,43.6,38.6,33.8,96,81,62,29.47,29.25,3,1,10,0.06
2014-3-23,51.1,41.9,35.8,42.4,37.3,34.0,99,84,66,29.57,29.34,3,1,8,0.07
2014-3-24,58.5,44.9,33.8,41.2,35.4,27.6,99,73,39,29.69,29.57,2,0,6,0.00
2014-3-25,57.0,42.9,29.8,41.2,31.6,27.0,99,68,33,29.67,29.52,3,1,14,0.00
2014-3-26,54.7,42.5,31.1,42.3,34.0,29.0,99,74,41,29.73,29.66,2,0,5,0.00
2014-3-27,60.1,47.0,33.3,40.6,35.7,30.9,92,67,40,29.72,29.58,2,1,8,0.00
2014-3-28,66.9,53.4,38.1,40.9,38.2,33.8,94,60,32,29.81,29.67,3,1,8,0.00
2014-3-29,71.1,56.1,40.5,43.4,37.8,30.5,87,55,24,29.85,29.76,2,1,8,0.00
2014-3-30,74.3,58.4,41.9,43.2,38.3,32.5,84,53,23,29.79,29.70,2,0,7,0.00
2014-3-31,77.0,61.8,47.8,45.7,42.5,39.0,81,52,27,29.73,29.62,1,0,6,0.00
2014-4-1,75.6,61.3,49.8,49.5,46.4,44.1,84,61,33,29.63,29.53,2,0,8,0.00
2014-4-2,76.5,59.8,43.3,50.6,46.6,42.8,99,67,33,29.56,29.35,2,0,6,0.00
2014-4-3,77.5,61.7,47.8,51.2,46.9,42.8,95,63,29,29.39,29.27,3,1,12,0.00
2014-4-4,62.2,57.2,52.9,52.5,50.8,49.1,88,79,69,29.64,29.39,2,0,6,0.00
2014-4-5,69.1,56.6,49.3,50.8,47.4,43.3,95,74,43,29.79,29.64,2,0,11,0.00
2014-4-6,68.2,57.1,46.0,56.4,50.3,42.2,91,79,60,29.79,29.73,3,1,8,0.02
2014-4-7,76.5,63.7,54.1,58.4,54.3,48.8,99,75,40,29.80,29.47,4,1,12,0.21
2014-4-8,58.3,51.6,44.8,55.7,43.7,33.3,99,76,42,29.98,29.48,5,2,17,0.11
2014-4-9,63.5,51.5,40.3,45.8,40.1,36.3,99,69,39,30.04,29.99,3,1,12,0.00
2014-4-10,69.1,55.4,43.0,48.3,44.5,39.1,90,69,40,30.02,29.87,1,0,6,0.00
2014-4-11,65.5,55.6,48.4,48.5,44.2,38.1,91,68,38,29.91,29.82,2,1,9,0.00
2014-4-12,65.3,52.7,38.5,50.2,41.9,37.0,99,71,35,29.91,29.77,2,1,8,0.00
2014-4-13,63.0,51.8,42.4,49.2,40.9,36.7,93,69,40,29.89,29.82,3,1,13,0.00
2014-4-14,58.1,49.5,41.0,45.3,39.6,33.5,88,70,43,30.04,29.76,5,2,18,0.00
2014-4-15,56.1,46.0,34.2,40.7,34.6,31.1,96,67,43,30.19,30.03,6,1,57,0.01
2014-4-16,63.9,49.0,30.9,41.2,31.3,23.9,98,57,22,30.23,30.08,2,1,8,0.00
2014-4-17,69.6,54.8,39.2,49.3,34.0,20.9,96,51,17,30.08,29.71,3,1,10,0.04
2014-4-18,59.2,50.4,41.2,47.3,39.9,33.3,99,70,39,29.80,29.69,4,2,12,0.01
2014-4-19,64.0,52.4,39.6,47.1,40.7,36.7,99,68,38,29.83,29.65,4,1,12,0.00
2014-4-20,74.7,60.6,48.7,52.1,45.9,37.8,95,63,29,29.65,29.36,4,1,14,0.00
2014-4-21,68.5,57.9,45.1,51.2,47.0,42.5,93,69,47,29.44,29.33,2,1,8,0.00
2014-4-22,70.5,58.0,47.5,51.6,47.3,43.4,99,72,39,29.74,29.40,2,1,8,0.01
2014-4-23,76.3,60.6,45.3,54.2,47.3,40.4,99,67,31,29.86,29.75,2,0,7,0.01
2014-4-24,75.4,59.2,47.1,58.7,51.7,46.9,99,80,41,29.88,29.72,2,0,8,0.48
2014-4-25,79.0,64.0,51.6,57.6,53.4,49.8,99,72,36,29.71,29.52,3,1,10,0.04
2014-4-26,70.0,60.2,47.7,52.6,47.9,42.5,99,67,40,29.64,29.50,3,1,11,0.00
2014-4-27,70.3,58.4,51.4,49.4,45.3,36.4,90,65,29,29.51,29.43,2,0,8,0.00
2014-4-28,72.9,58.0,44.8,52.2,47.4,44.0,99,71,39,29.65,29.52,1,0,4,0.00
2014-4-29,63.1,56.2,52.2,56.8,52.5,48.7,99,88,70,29.66,29.61,1,0,6,0.20
2014-4-30,66.7,56.6,51.3,54.8,52.0,48.8,99,86,63,29.65,29.58,2,1,8,0.01
2014-5-1,73.9,57.2,46.0,53.3,49.2,45.1,99,78,38,29.65,29.55,2,0,6,0.00
2014-5-2,59.2,53.0,48.9,52.9,45.9,37.7,99,78,58,30.01,29.61,3,1,10,0.00
2014-5-3,48.6,42.2,41.7,38.7,38.3,36.2,88,86,63,30.04,30.01,1,0,5,0.00
2014-5-4,65.5,51.8,32.7,42.0,35.7,31.2,98,59,29,30.04,29.78,2,0,5,0.00
2014-5-5,73.6,59.0,38.3,45.1,37.3,28.6,97,51,20,29.78,29.45,2,1,7,0.00
2014-5-6,73.0,60.0,52.0,58.8,48.7,41.0,99,68,40,29.45,29.32,3,1,11,0.22
2014-5-7,63.5,55.9,48.2,56.5,49.3,43.4,99,80,49,29.50,29.33,3,1,13,0.15
2014-5-8,58.8,53.9,51.6,55.7,49.6,45.0,99,86,65,29.52,29.29,3,2,11,0.34
2014-5-9,64.9,56.2,49.1,55.5,50.9,46.1,99,83,53,29.58,29.32,4,2,13,0.39
2014-5-10,58.5,52.5,48.6,56.8,49.3,44.1,99,89,70,29.59,29.20,4,2,14,0.26
2014-5-11,57.9,52.5,49.3,50.5,45.5,43.3,90,77,65,29.33,29.16,5,3,15,0.08
2014-5-12,56.1,50.7,45.9,53.1,48.0,43.8,99,90,76,29.51,29.33,3,1,12,0.54
2014-5-13,63.1,51.5,44.1,52.3,46.5,40.3,99,85,52,29.88,29.51,2,0,8,0.27
2014-5-14,65.8,50.6,36.9,52.1,42.6,36.1,99,76,45,30.17,29.89,4,1,12,0.11
2014-5-15,62.8,51.5,38.1,46.7,40.8,37.9,99,70,42,30.27,30.16,2,1,8,0.00
2014-5-16,71.6,57.2,37.4,51.5,40.7,33.5,99,61,26,30.27,29.99,2,1,7,0.00
2014-5-17,73.9,61.5,44.6,53.0,47.4,43.4,99,64,35,29.99,29.75,2,1,8,0.00
2014-5-18,78.1,64.7,44.8,55.7,49.0,44.0,99,63,32,29.75,29.42,2,0,7,0.00
2014-5-19,84.4,69.4,50.0,55.0,49.9,44.0,99,57,26,29.42,29.27,2,1,8,0.00
2014-5-20,83.5,72.1,57.9,58.4,52.3,49.6,89,52,34,29.47,29.34,4,1,13,0.06
2014-5-21,74.7,67.4,55.6,61.8,58.0,55.3,99,73,54,29.53,29.23,4,0,9,0.11
2014-5-22,78.8,67.6,58.5,61.7,53.5,44.0,97,64,31,29.36,29.22,4,2,7,0.12
2014-5-23,76.1,64.9,55.9,56.2,50.5,43.5,93,63,33,29.46,29.35,2,1,10,0.00
2014-5-24,70.5,62.0,54.7,53.5,48.4,41.9,88,64,37,29.65,29.44,3,1,15,0.00
2014-5-25,75.9,67.2,50.7,53.3,47.5,43.5,89,52,32,29.74,29.65,2,1,8,0.00
2014-5-26,71.6,62.1,55.0,60.9,55.4,51.8,99,80,56,29.73,29.48,2,0,8,0.48
2014-5-27,63.3,59.1,54.3,62.5,58.5,53.5,99,98,94,29.50,29.41,2,0,7,0.47
2014-5-28,65.3,59.3,54.9,56.9,55.6,54.0,99,88,72,29.55,29.44,2,1,7,0.01
2014-5-29,68.2,58.0,52.0,57.4,53.6,48.8,99,86,66,29.76,29.55,2,1,8,0.00
2014-5-30,67.8,57.3,45.9,49.4,46.5,43.7,95,70,45,29.87,29.75,2,1,8,0.00
2014-5-31,75.2,60.5,42.6,53.6,46.3,42.3,99,64,35,29.88,29.79,3,1,11,0.00
2014-6-1,73.0,61.1,45.9,52.2,45.5,39.9,99,61,32,29.85,29.74,2,0,8,0.00
2014-6-2,77.9,62.2,44.8,53.2,46.6,41.5,99,62,29,29.78,29.65,2,0,10,0.00
2014-6-3,77.7,62.0,46.0,58.0,50.3,45.2,98,70,35,29.68,29.49,3,0,12,0.07
2014-6-4,68.2,59.3,53.4,61.1,56.3,52.8,99,90,71,29.49,29.19,3,1,11,0.17
2014-6-5,68.5,55.4,46.8,56.4,49.0,43.9,99,81,44,29.61,29.34,3,1,11,0.24
2014-6-6,82.0,65.9,43.3,54.0,48.0,42.8,98,59,30,29.64,29.55,2,0,6,0.00
2014-6-7,90.5,75.1,54.0,66.9,58.8,51.4,92,60,33,29.63,29.49,2,0,8,0.00
2014-6-8,87.1,72.9,62.1,66.4,61.7,59.2,94,71,40,29.72,29.62,2,0,8,0.02
2014-6-9,87.8,74.6,63.9,70.2,64.6,60.5,95,73,46,29.74,29.55,4,1,9,0.31
2014-6-10,84.9,71.8,61.7,69.5,64.2,57.1,98,79,48,29.83,29.57,3,1,17,0.43
2014-6-11,79.2,68.5,55.4,57.6,52.9,44.7,90,61,36,30.01,29.83,3,1,11,0.01
2014-6-12,80.6,66.5,48.0,57.3,51.0,47.8,99,62,34,30.02,29.91,2,0,7,0.00
2014-6-13,78.6,68.1,53.8,59.3,53.1,49.8,97,62,40,29.94,29.78,3,1,10,0.00
2014-6-14,71.8,64.5,58.5,56.6,51.7,46.8,90,65,41,29.86,29.76,3,1,10,0.00
2014-6-15,75.6,62.7,49.3,55.0,50.4,47.8,99,68,41,29.90,29.81,2,1,8,0.00
2014-6-16,70.7,59.0,48.7,56.5,51.3,47.3,96,76,57,29.91,29.80,3,1,11,0.00
2014-6-17,72.9,62.3,55.4,57.4,52.9,47.6,83,72,52,29.87,29.78,3,1,9,0.00
2014-6-18,73.6,62.7,47.3,57.3,53.2,47.0,99,73,53,29.87,29.79,2,1,8,0.00
2014-6-19,69.4,59.4,50.9,56.4,52.7,49.8,98,80,54,29.83,29.74,2,1,8,0.01
2014-6-20,69.8,59.4,52.2,53.2,50.8,46.7,98,75,47,29.78,29.72,3,1,10,0.00
2014-6-21,77.2,63.4,45.9,55.2,50.9,45.1,99,67,41,29.78,29.67,2,1,7,0.00
2014-6-22,77.9,65.9,50.7,56.9,50.7,46.6,99,62,35,29.86,29.72,2,1,10,0.00
2014-6-23,78.4,64.9,47.3,54.0,49.7,47.0,99,62,37,29.87,29.74,2,1,8,0.00
2014-6-24,79.7,66.2,50.7,56.6,52.8,49.9,98,66,38,29.77,29.59,3,1,11,0.00
2014-6-25,74.5,63.3,49.1,53.6,47.5,42.2,94,59,34,29.66,29.60,2,1,8,0.00
2014-6-26,80.6,66.6,52.2,53.3,47.2,38.2,90,55,24,29.66,29.54,2,0,8,0.00
2014-6-27,79.9,65.6,57.2,58.6,53.5,49.0,97,68,34,29.58,29.50,4,1,11,0.01
2014-6-28,74.5,62.6,54.9,58.1,54.9,48.8,99,79,43,29.54,29.37,2,1,8,0.01
2014-6-29,71.4,62.8,55.9,61.1,55.1,45.9,99,78,40,29.51,29.33,2,0,8,0.15
2014-6-30,73.0,61.8,50.5,56.7,50.0,40.2,98,69,33,29.72,29.52,3,1,13,0.05
2014-7-1,77.0,62.0,43.2,53.3,46.5,42.6,99,62,32,29.79,29.70,2,1,8,0.00
2014-7-2,80.1,65.8,46.8,54.4,47.8,43.0,99,58,27,29.86,29.78,2,0,8,0.00
2014-7-3,87.1,70.8,49.1,55.1,50.1,44.7,99,54,27,29.87,29.69,2,1,8,0.00
2014-7-4,89.6,74.3,56.5,64.6,54.8,49.5,91,54,28,29.69,29.32,3,1,8,0.01
2014-7-5,75.2,68.1,63.5,66.7,63.5,61.3,99,86,65,29.36,29.24,3,1,13,0.19
2014-7-6,77.7,70.5,63.7,65.5,64.1,61.5,99,81,61,29.36,29.28,3,2,11,0.00
2014-7-7,72.7,72.7,72.7,65.5,65.5,65.5,78,78,78,29.28,29.28,2,2,8,0.00
2014-7-8,72.7,65.7,55.8,65.5,61.8,55.5,99,88,77,29.97,29.28,3,2,12,0.39
2014-7-9,62.1,57.7,54.3,61.5,57.2,53.5,99,98,97,29.97,29.76,4,2,15,0.93
2014-7-10,81.9,69.4,62.1,70.7,65.3,61.5,99,88,67,30.03,29.79,2,1,7,0.05
2014-7-11,77.0,66.7,61.2,65.3,62.4,60.6,98,87,64,30.04,29.97,1,0,5,0.15
2014-7-12,68.7,64.7,62.1,64.1,62.3,60.9,98,92,82,30.04,29.93,1,0,4,0.00
2014-7-13,78.8,66.5,59.9,67.0,61.6,59.3,99,85,58,29.95,29.74,2,1,8,0.02
2014-7-14,77.9,67.6,57.7,64.0,58.2,52.7,99,75,44,30.11,29.81,3,1,10,0.01
2014-7-15,75.7,63.6,53.6,63.1,58.1,51.5,95,83,63,30.25,30.11,2,1,8,0.00
2014-7-16,85.8,71.7,55.6,65.6,59.7,55.3,99,70,39,30.25,30.20,2,0,8,0.00
2014-7-17,89.6,76.2,59.7,66.8,61.6,59.3,99,65,38,30.24,30.15,2,0,5,0.00
2014-7-18,97.3,81.5,63.3,67.4,63.8,60.3,94,59,33,30.17,29.94,2,0,8,0.00
2014-7-19,96.4,83.0,68.9,67.6,63.7,59.3,83,55,31,29.99,29.80,3,1,10,0.00
2014-7-20,88.0,76.1,66.6,69.5,65.3,60.7,96,71,42,29.91,29.81,2,0,8,0.01
2014-7-21,75.9,68.0,64.9,66.5,65.4,63.9,99,92,71,30.07,29.91,3,1,11,0.12
2014-7-22,86.0,74.7,65.3,71.1,65.0,61.2,99,75,45,30.17,30.07,2,1,8,0.27
2014-7-23,87.3,76.3,64.4,65.8,62.0,54.7,95,65,36,30.17,30.04,3,1,11,0.00
2014-7-24,85.8,74.0,62.2,60.8,57.9,54.4,88,60,39,30.08,29.99,2,1,10,0.00
2014-7-25,77.4,67.7,60.8,62.1,59.5,56.9,91,76,54,30.05,29.97,3,1,11,0.00
2014-7-26,86.2,72.7,59.2,65.7,62.1,58.9,99,72,43,30.02,29.95,2,0,7,0.00
2014-7-27,88.2,73.0,64.4,65.8,63.1,59.4,99,74,40,30.07,30.00,2,0,8,0.01
2014-7-28,81.9,69.8,62.6,66.8,63.8,60.8,99,83,53,30.05,29.88,2,0,6,0.12
2014-7-29,86.0,71.2,62.2,71.7,66.2,61.7,99,85,58,29.94,29.85,3,1,11,0.19
2014-7-30,79.9,68.8,57.4,64.0,59.1,53.6,99,73,49,30.07,29.93,3,1,10,0.00
2014-7-31,84.6,68.6,51.4,60.9,55.6,51.2,99,68,37,30.08,29.96,2,1,7,0.00
2014-8-1,85.1,72.1,55.8,63.6,59.2,55.2,99,68,39,29.97,29.82,1,0,6,0.00
2014-8-2,88.3,74.7,60.8,63.6,60.9,57.6,94,65,43,29.82,29.68,2,1,9,0.00
2014-8-3,85.5,70.2,59.0,66.1,59.1,54.0,99,73,37,29.97,29.77,3,0,9,0.01
2014-8-4,81.3,67.8,56.1,62.4,56.9,51.5,99,72,39,30.14,29.96,2,0,7,0.00
2014-8-5,82.8,68.9,54.0,61.3,53.8,44.8,99,63,28,30.18,30.13,2,0,7,0.00
2014-8-6,72.9,63.7,55.6,63.9,58.1,53.1,98,83,54,30.15,29.98,2,0,7,0.00
2014-8-7,64.2,62.5,58.5,62.2,61.0,58.2,99,95,92,30.00,29.97,1,0,4,0.00
2014-8-8,64.0,64.0,64.0,61.7,61.7,61.7,92,92,92,30.00,30.00,0,0,2,0.00
2014-8-9,79.5,68.3,62.4,61.7,59.7,56.4,92,76,50,30.03,29.93,3,1,11,0.00
2014-8-10,77.0,65.4,57.2,67.9,60.9,55.6,99,86,65,30.02,29.65,4,1,19,0.69
2014-8-11,74.5,64.3,57.2,61.4,54.3,50.6,90,72,45,30.02,29.85,4,2,13,0.12
2014-8-12,72.7,62.6,55.2,59.2,54.4,51.6,95,76,48,30.00,29.92,4,2,11,0.05
2014-8-13,77.4,63.7,51.3,58.9,52.8,46.5,99,71,40,29.92,29.79,2,1,8,0.00
2014-8-14,70.2,60.6,54.3,61.1,56.9,52.9,99,88,67,30.01,29.91,2,1,8,0.25
2014-8-15,69.8,59.0,54.3,63.0,56.7,53.5,99,92,78,30.21,29.99,2,0,8,0.46
2014-8-16,72.7,61.4,53.8,62.7,54.5,49.9,99,80,54,30.28,30.20,3,1,13,0.13
2014-8-17,64.8,59.0,55.2,58.4,54.7,51.9,99,86,73,30.20,29.85,4,2,14,0.19
2014-8-18,68.4,58.5,52.3,56.7,54.3,50.2,99,87,56,30.01,29.78,4,1,13,0.12
2014-8-19,68.0,57.2,49.5,57.1,50.9,45.6,99,81,47,30.14,29.93,4,1,16,0.05
2014-8-20,71.8,56.5,45.0,53.9,49.2,44.2,99,79,43,30.20,30.12,2,0,8,0.06
2014-8-21,72.9,58.7,46.9,52.7,48.7,43.3,99,73,36,30.21,30.11,2,1,8,0.01
2014-8-22,66.9,57.6,50.2,56.2,51.3,47.0,96,80,55,30.12,29.98,3,1,11,0.02
2014-8-23,69.4,57.9,50.4,57.2,50.2,42.8,99,78,40,30.21,30.03,4,1,14,0.25
2014-8-24,70.7,57.0,45.3,54.0,48.8,44.5,99,77,45,30.26,30.18,3,0,9,0.01
2014-8-25,67.5,56.1,43.3,57.9,52.0,42.8,99,88,55,30.25,29.86,1,0,5,0.31
2014-8-26,61.0,57.0,54.1,59.0,56.5,53.3,99,98,90,30.00,29.74,3,1,9,0.67
2014-8-27,74.1,61.7,45.7,57.3,52.3,44.9,99,75,45,30.17,30.00,2,0,8,0.00
2014-8-28,74.7,65.0,53.6,65.1,59.8,52.8,99,84,65,30.16,30.05,2,1,9,0.27
2014-8-29,75.2,65.0,56.1,64.2,57.4,53.8,99,78,53,30.17,30.11,3,1,8,0.01
2014-8-30,68.0,61.7,56.5,62.8,57.7,53.9,97,87,77,30.17,30.11,3,1,11,0.11
2014-8-31,71.1,60.3,53.6,62.9,55.7,50.6,99,86,53,30.27,30.09,3,1,11,0.07
2014-9-1,78.3,63.3,48.2,62.0,53.5,47.9,99,74,39,30.33,30.26,2,0,6,0.01
2014-9-2,79.3,66.3,56.5,62.0,56.9,52.7,99,75,42,30.42,30.32,2,0,6,0.00
2014-9-3,75.0,64.8,55.0,61.3,56.1,50.4,99,76,44,30.41,30.31,3,1,11,0.00
2014-9-4,79.9,68.4,57.7,63.2,58.9,55.7,94,73,49,30.33,30.16,2,0,8,0.00
2014-9-5,80.8,68.2,60.8,63.3,60.6,57.5,97,79,45,30.17,30.07,1,0,5,0.00
2014-9-6,75.4,64.8,57.6,64.7,61.1,57.2,99,89,69,30.12,30.05,1,0,7,0.00
2014-9-7,78.4,64.2,52.2,65.3,56.6,51.6,99,79,46,30.19,30.11,1,0,7,0.00
2014-9-8,78.3,62.2,52.3,62.1,53.6,49.2,99,77,44,30.30,30.19,2,0,7,0.00
2014-9-9,74.3,58.5,48.4,57.4,52.2,48.1,99,81,50,30.34,30.27,2,0,7,0.00
2014-9-10,73.9,60.1,50.4,55.1,52.0,47.8,99,77,43,30.34,30.27,2,0,6,0.00
2014-9-11,76.5,60.8,50.4,60.7,53.4,50.1,99,79,48,30.35,30.23,3,1,11,0.00
2014-9-12,75.7,62.1,48.4,59.0,53.7,48.1,99,77,48,30.41,30.33,3,1,8,0.00
2014-9-13,75.4,62.2,54.1,58.6,55.5,53.1,99,81,48,30.45,30.41,2,1,8,0.00
2014-9-14,74.3,61.6,53.2,60.0,56.5,52.7,99,85,55,30.44,30.25,2,0,7,0.00
2014-9-15,78.4,65.1,53.2,61.1,56.9,52.7,99,78,45,30.25,30.12,2,0,7,0.00
2014-9-16,81.1,64.0,53.1,66.4,58.1,3.5,99,84,11,30.17,30.08,0,0,4,0.00
2014-9-17,83.5,66.2,51.4,66.1,56.5,-1.5,99,75,10,30.10,29.99,2,0,6,0.00
2014-9-18,82.6,67.7,55.9,65.8,61.3,55.7,99,82,50,30.00,29.93,2,0,8,0.00
2014-9-19,80.4,67.3,59.5,67.3,63.3,59.3,99,88,59,30.08,29.97,0,0,2,0.00
2014-9-20,81.7,67.4,59.2,70.2,63.2,58.9,99,88,63,30.16,30.06,2,0,8,0.01
2014-9-21,70.7,61.4,51.8,61.2,55.5,47.6,99,83,47,30.35,30.15,3,1,12,0.00
2014-9-22,66.9,55.8,44.6,51.8,47.9,42.2,99,77,46,30.40,30.30,4,1,14,0.00
2014-9-23,73.4,55.4,42.4,53.2,46.7,42.2,99,77,40,30.40,30.21,2,0,7,0.00
2014-9-24,61.3,54.5,49.8,56.8,51.3,48.0,99,89,77,30.21,29.97,3,0,9,0.00
2014-9-25,70.3,57.7,49.5,59.0,51.1,48.6,99,81,51,30.36,30.08,2,0,8,0.00
2014-9-26,65.7,58.7,54.1,60.4,56.0,50.3,99,91,81,30.50,30.34,2,1,6,0.00
2014-9-27,68.9,59.4,51.3,61.3,56.7,51.0,99,92,65,30.57,30.50,1,0,7,0.00
2014-9-28,76.3,61.0,48.6,61.3,55.5,48.3,99,85,53,30.50,30.31,1,0,6,0.00
2014-9-29,68.9,61.4,56.7,63.6,59.7,56.4,99,94,76,30.38,30.31,2,0,9,0.00
2014-9-30,75.0,64.0,57.6,62.8,58.9,3.6,99,86,10,30.48,30.38,1,0,6,0.00
2014-10-1,77.0,62.0,52.3,66.4,57.2,51.8,99,86,54,30.54,30.46,2,0,6,0.00
2014-10-2,79.0,62.9,52.7,63.9,56.5,52.2,99,83,44,30.58,30.53,0,0,1,0.00
2014-10-3,79.7,62.3,52.7,64.3,57.1,52.2,99,85,51,30.54,30.31,0,0,0,0.00
2014-10-4,75.6,61.5,49.6,57.8,54.5,49.4,99,80,51,30.31,30.07,2,0,8,0.00
2014-10-5,57.2,54.4,53.1,54.4,52.3,49.5,98,93,78,30.28,30.15,2,0,9,0.00
2014-10-6,63.5,56.8,52.9,55.5,52.9,51.2,98,87,65,30.15,29.79,2,1,8,0.00
2014-10-7,61.5,55.0,48.0,57.9,51.4,47.2,99,89,64,29.89,29.59,4,1,14,0.25
2014-10-8,62.6,54.8,45.5,60.6,53.1,44.7,99,94,84,29.93,29.62,3,1,11,0.01
2014-10-9,64.4,58.8,55.0,59.7,54.9,51.2,99,87,69,29.95,29.65,4,1,11,0.00
2014-10-10,70.9,57.9,51.1,55.3,53.1,50.5,99,85,54,30.15,29.95,2,1,8,0.00
2014-10-11,62.4,52.8,44.2,59.8,51.2,-2.9,99,96,10,30.13,30.02,1,0,5,0.31
2014-10-12,68.9,55.8,45.1,58.9,51.7,44.3,99,87,61,30.15,29.85,2,1,8,0.18
2014-10-13,68.9,59.6,53.2,60.9,54.0,48.5,99,83,61,29.86,29.76,3,1,14,0.01
2014-10-14,61.2,55.5,50.7,52.2,49.6,46.5,89,81,70,29.90,29.84,3,1,11,0.00
2014-10-15,68.5,57.0,52.3,55.3,52.5,50.2,98,86,60,29.90,29.84,2,1,7,0.08
2014-10-16,68.0,57.2,53.2,60.4,55.4,52.7,99,94,69,29.90,29.74,2,1,9,0.72
2014-10-17,70.2,59.3,54.3,62.0,56.1,53.5,99,90,65,30.22,29.89,2,0,7,0.14
2014-10-18,77.2,63.5,53.8,61.2,57.3,53.0,98,82,57,30.23,30.16,2,1,9,0.00
2014-10-19,77.7,65.1,59.0,61.3,58.4,53.5,98,80,54,30.23,30.10,3,1,16,0.02
2014-10-20,69.6,59.2,53.4,55.6,52.3,49.2,90,79,56,30.22,30.10,3,1,11,0.01
2014-10-21,56.7,52.4,45.9,55.3,48.4,40.5,97,86,70,30.10,29.64,5,2,18,0.37
2014-10-22,57.4,48.7,43.5,48.8,44.1,41.0,98,85,64,30.39,30.00,4,1,14,0.65
2014-10-23,64.9,53.4,46.6,51.3,48.2,44.5,94,83,58,30.40,30.33,2,1,7,0.00
2014-10-24,56.7,52.9,50.5,50.5,48.4,45.8,96,85,78,30.35,30.19,2,1,8,0.24
2014-10-25,59.9,52.9,44.6,57.5,51.4,43.8,99,95,79,30.39,30.18,1,0,7,0.17
2014-10-26,62.1,54.4,47.7,52.9,50.6,46.9,99,88,70,30.45,30.39,2,0,7,0.00
2014-10-27,68.7,55.7,49.5,58.8,50.9,48.1,99,86,55,30.45,30.34,2,0,7,0.01
2014-10-28,62.2,50.4,42.8,49.2,45.1,42.3,99,83,57,30.34,30.14,2,1,8,0.02
2014-10-29,52.7,50.4,47.7,52.2,49.0,43.1,99,95,82,30.31,30.14,2,0,10,0.06
2014-10-30,63.7,56.7,52.5,57.1,54.5,52.0,99,93,78,30.38,30.31,1,0,5,0.05
2014-10-31,68.0,57.7,51.3,54.5,52.6,50.6,99,84,61,30.38,30.30,1,0,5,0.02
2014-11-1,73.6,59.9,52.3,54.8,51.5,48.0,89,75,48,30.30,30.19,1,0,8,0.00
2014-11-2,67.6,59.8,54.0,54.8,52.3,49.1,93,77,54,30.19,29.82,4,2,11,0.24
2014-11-3,60.3,54.7,49.8,52.7,49.3,45.8,97,83,61,29.83,29.42,5,2,18,1.17
2014-11-4,52.0,48.4,43.5,49.1,46.5,43.0,99,93,83,29.59,29.42,2,0,7,0.08
2014-11-5,51.4,43.9,37.6,48.5,42.7,37.1,99,96,81,29.90,29.58,1,0,4,0.01
2014-11-6,49.1,44.1,40.1,46.6,42.5,38.6,99,94,86,30.01,29.91,1,0,8,0.02
2014-11-7,49.8,45.7,40.3,45.1,41.2,37.2,94,84,68,29.96,29.68,3,2,11,0.08
2014-11-8,59.0,50.5,44.1,45.9,43.9,41.8,92,79,60,29.98,29.83,3,1,11,0.00
2014-11-9,59.5,48.9,43.2,46.2,43.6,40.6,94,82,58,29.93,29.84,2,0,8,0.05
2014-11-10,59.0,49.9,42.8,50.8,44.5,39.9,98,83,56,29.98,29.92,3,1,9,0.12
2014-11-11,59.5,48.3,39.2,49.4,43.9,38.2,99,86,62,29.96,29.69,3,1,9,0.01
2014-11-12,55.9,49.6,41.0,49.7,45.8,40.2,98,87,78,29.95,29.67,2,0,5,0.05
2014-11-13,64.2,47.3,36.0,51.3,43.0,34.9,99,87,53,30.05,29.95,2,0,6,0.02
2014-11-14,56.1,49.6,41.5,49.0,45.5,39.7,97,87,69,30.01,29.78,2,1,12,0.24
2014-11-15,51.6,48.9,44.2,51.1,48.3,43.7,99,98,95,29.79,29.66,1,0,7,0.27
2014-11-16,49.3,46.6,44.2,49.0,45.9,43.7,99,98,97,29.75,29.64,0,0,2,0.26
2014-11-17,58.6,48.9,44.6,46.6,44.7,43.1,98,86,61,29.92,29.66,2,0,8,0.02
2014-11-18,48.2,46.0,42.3,46.0,44.0,41.5,98,93,87,30.12,29.91,1,0,5,0.01
2014-11-19,50.9,45.4,37.0,45.9,42.0,34.9,97,88,72,30.48,30.12,0,0,3,0.00
2014-11-20,47.3,41.5,36.3,45.1,39.9,34.5,99,94,85,30.53,30.48,2,0,9,0.00
2014-11-21,50.2,40.1,33.6,43.4,36.5,32.3,99,88,65,30.48,30.26,2,0,8,0.01
2014-11-22,58.8,47.2,38.3,47.6,42.9,37.4,97,86,63,30.26,30.19,2,0,7,0.00
2014-11-23,62.6,53.0,44.1,51.6,48.2,43.3,97,84,62,30.24,30.10,3,0,8,0.01
2014-11-24,64.8,46.2,33.1,51.2,40.3,30.8,96,82,40,30.54,30.19,3,0,11,0.05
2014-11-25,51.8,39.1,29.3,41.0,33.9,27.8,99,82,60,30.53,30.27,2,1,9,0.01
2014-11-26,45.0,41.4,37.4,41.6,37.7,34.0,94,87,76,30.26,30.01,2,1,7,0.01
2014-11-27,48.4,45.5,44.1,44.2,42.8,41.3,96,90,83,30.01,29.85,1,1,7,0.08
2014-11-28,50.2,44.4,39.2,43.5,40.3,36.0,97,86,72,30.03,29.86,2,1,12,0.01
2014-11-29,46.2,38.6,35.4,39.4,35.1,32.1,93,87,73,30.15,30.02,2,1,9,0.00
2014-11-30,38.3,37.6,36.1,36.8,35.5,33.2,97,92,89,30.14,30.02,1,0,6,0.38
2014-12-1,37.4,36.2,35.4,35.2,32.3,30.1,93,86,80,30.07,30.03,2,1,9,0.01
2014-12-2,35.6,34.1,33.1,31.7,30.1,27.6,92,85,80,30.28,30.06,1,0,6,0.01
2014-12-3,34.0,31.1,28.2,29.7,26.2,22.3,86,82,78,30.37,30.28,2,1,8,0.00
2014-12-4,36.0,32.5,28.8,31.3,27.8,24.0,86,82,78,30.33,30.17,1,0,5,0.00
2014-12-5,41.2,38.7,35.1,39.7,35.6,31.3,97,89,82,30.28,30.20,1,0,5,0.12
2014-12-6,54.1,41.3,31.6,45.8,38.4,29.6,98,90,62,30.49,30.28,1,0,6,0.00
2014-12-7,41.7,36.4,30.7,40.9,34.5,29.0,97,93,78,30.47,30.14,3,1,9,0.15
2014-12-8,43.7,36.0,32.7,36.7,32.8,29.6,93,88,70,30.30,30.19,2,1,8,0.15
2014-12-9,39.4,37.1,34.5,38.8,35.6,32.4,99,94,80,30.56,30.30,3,1,13,0.01
2014-12-10,52.0,42.4,38.5,44.2,36.8,31.9,96,81,60,30.38,30.08,4,2,13,0.21
2014-12-11,45.5,42.1,37.9,41.4,36.9,34.4,91,82,73,30.12,29.88,5,2,13,0.15
2014-12-12,49.1,46.3,41.4,46.7,42.5,37.8,93,87,75,29.89,29.51,6,3,19,0.48
2014-12-13,42.3,39.4,35.1,37.8,36.1,31.8,92,88,82,30.14,29.79,1,0,4,0.01
2014-12-14,40.3,35.1,32.5,38.0,32.6,30.5,98,90,84,30.21,30.10,2,1,6,0.00
2014-12-15,43.0,40.3,35.1,41.3,37.7,30.6,95,90,79,30.12,29.99,3,2,10,0.12
2014-12-16,46.2,42.0,37.4,42.4,39.2,36.1,97,90,76,30.13,30.05,2,1,7,0.01
2014-12-17,50.5,44.7,37.0,49.4,43.5,34.9,98,95,89,30.12,29.76,3,1,11,0.14
2014-12-18,54.7,52.6,50.5,52.8,49.6,-2.2,98,92,10,30.07,29.95,4,2,14,0.09
2014-12-19,53.1,47.9,40.5,50.8,44.5,36.0,95,88,76,30.32,29.96,4,2,14,0.48
2014-12-20,48.0,43.4,39.7,39.4,37.3,35.6,87,79,67,30.57,30.30,4,2,15,0.04
2014-12-21,47.1,43.0,39.0,44.8,40.5,37.1,96,91,82,30.62,30.38,4,2,14,0.08
2014-12-22,54.7,50.9,47.1,48.1,45.6,43.2,89,82,72,30.38,30.23,5,3,17,0.00
2014-12-23,53.8,51.9,50.0,47.8,44.4,41.3,91,76,67,30.28,30.20,4,3,13,0.01
2014-12-24,50.4,46.7,39.4,47.0,41.2,33.4,94,82,71,30.32,30.11,4,2,14,0.11
2014-12-25,43.9,41.9,37.9,38.7,36.9,33.1,87,83,78,30.42,30.33,2,1,6,0.00
2014-12-26,43.9,43.9,43.9,38.7,38.7,38.7,82,82,82,30.42,30.42,1,1,5,0.00
2014-12-27,43.9,38.0,29.8,38.7,33.8,21.3,95,85,70,30.42,29.49,3,1,13,0.48
2014-12-28,38.7,26.3,21.4,21.2,17.8,14.2,84,71,44,30.76,29.93,2,1,11,0.00
2014-12-29,43.3,34.7,26.2,38.5,30.7,21.1,93,85,73,30.87,30.67,2,0,8,0.04
2014-12-30,48.0,37.4,33.4,40.0,33.6,30.9,96,86,64,30.86,30.76,1,0,6,0.01
2014-12-31,50.2,37.2,32.9,40.5,33.5,30.6,93,86,64,30.82,30.74,0,0,3,0.00
2015-1-1,43.0,35.8,31.1,34.7,30.0,28.3,94,80,62,30.82,30.49,4,2,12,0.01
2015-1-2,49.6,42.2,36.5,46.1,34.8,29.0,96,76,52,30.72,30.36,4,2,12,0.06